CSS (TIANHE-1)
1 48274U 21035A   25287.29779938  .00038306  00000-0  43228-3 0  9996
2 48274  41.4665  17.9295 0003247 242.0891 117.9619 15.61744899254748
TUBIN
1 48900U 21059X   25286.16738369  .00137706  00000-0  85464-3 0  9998
2 48900  97.6748 106.8798 0002004 132.2420 227.9015 15.76612366239703
LEDSAT
1 49069U 21073D   25287.22280012  .04779575  24522-5  11441-2 0  9999
2 49069  97.3520  16.6384 0010161 280.7229  79.2921 16.29438138231363
CUTE
1 49263U 21088D   25287.03467951  .00040370  00000-0  63113-3 0  9993
2 49263  97.4394   7.4287 0007039 127.3829 232.8066 15.53650626224016
TeikyoSat 4
1 49396U 21102B   25287.09906102  .00003230  00000-0  21210-3 0  9995
2 49396  97.3991 320.9249 0013914  63.6238 296.6417 15.08239499215616
Z-Sat
1 49399U 21102E   25287.24131536  .00006205  00000-0  32869-3 0  9993
2 49399  97.3679 324.9777 0018323  29.9535 330.2742 15.15611802216152
KOSEN 1
1 49402U 21102H   25287.10789524  .00009126  00000-0  39864-3 0  9996
2 49402  97.3570 329.2662 0015013   2.7340 357.3975 15.22230807216523
HO-113
1 50466U 21131B   25287.28409725  .00000916  00000-0  29880-3 0  9996
2 50466  98.5073  16.0055 0005247 113.0982 247.0761 14.40988821199690
SNUGLITE 2
1 52899U 22065F   25287.32879596  .00001970  00000-0  38852-3 0  9997
2 52899  98.1871  68.2272 0008644  78.4497 281.7676 14.63582355175021
UmKA 1 (RS40S)
1 57172U 23091G   25287.26751346  .00007936  00000-0  40422-3 0  9995
2 57172  97.5432 342.0102 0012396 253.5901 106.3969 15.16998345126679
CubeBel-2 (EU11S)
1 57175U 23091K   25287.25973320  .00013524  00000-0  59405-3 0  9996
2 57175  97.5430 343.9998 0010031 257.8747 102.1365 15.22001113126806
ENSO
1 58470U 23185J   25286.99676613  .00315332  00000-0  14127-2 0  9997
2 58470  97.3538   7.7888 0004942 287.2111  72.8618 15.83344704104804
SONATE-2
1 59112U 24043Q   25287.31223020  .00028620  00000-0  69410-3 0  9999
2 59112  97.5288  61.5566 0009902  23.8204 336.3498 15.40968303 89818
MO-122
1 60209U 24125G   25287.22215917  .00029221  00000-0  69102-3 0  9991
2 60209  97.2621 137.7346 0017822  45.1578 315.1114 15.41606172 71420
GRBBeta
1 60237U 24128C   25287.32700283  .00005600  00000-0  40491-3 0  9996
2 60237  61.9926 357.2631 0056938  84.0629 276.6948 15.03929918 69251
Curium One
1 60242U 24128H   25287.32138522  .00009750  00000-0  63139-3 0  9997
2 60242  61.9821 353.4533 0056632  80.5135 280.2353 15.07380053 69328
ROBUSTA-3A
1 60243U 24128J   25287.30086577  .00009398  00000-0  61908-3 0  9998
2 60243  61.9896 354.8115 0056508  78.0188 282.7231 15.06795950 69309
CatSat
1 60246U 24125J   25287.06951725  .00032901  00000-0  93546-3 0  9996
2 60246  97.2437 135.2945 0038082   5.3039 354.8600 15.35344189 69354
HYPERVIEW-1G (RS66S)
1 61772U 24199AP  25287.27812480  .00035605  00000-0  83142-3 0  9994
2 61772  97.3301 156.2113 0014048  95.0518 265.2333 15.42011143 96430
AO-123
1 61781U 24199AY  25287.26565896  .00009777  00000-0  33422-3 0  9996
2 61781  97.3330 153.4149 0017016 105.7910 254.5209 15.30341025 96247
ZIMSAT 2
1 61783U 24199BA  25287.28912056  .00089915  00000-0  13694-2 0  9994
2 61783  97.3232 158.2379 0012880  88.3111 271.9618 15.54101144 99726
HADES-R (SO-124)
1 62690U 25009CK  25287.29038355  .00083035  00000-0  19209-2 0  9990
2 62690  97.3974   8.4349 0001481 328.6881  31.4277 15.42169415 41571
HYDRA-T
1 62692U 25009CM  25287.30876286  .00087439  00000-0  19794-2 0  9998
2 62692  97.3972   8.5627 0001599 311.4480  48.6630 15.42801966 41584
JINJUSat 1B
1 63210U 25052A   25287.21960802  .00016756  00000-0  69272-3 0  9992
2 63210  97.4224 179.8583 0002081 203.4201 156.6942 15.24050308 32518
NUSHSAT 1
1 63211U 25052B   25287.18221482  .00021468  00000-0  86912-3 0  9999
2 63211  97.4213 179.8784 0001764 212.0447 148.0684 15.24703930 32519
TEVEL2-4
1 63213U 25052D   25287.22633409  .00018303  00000-0  75252-3 0  9991
2 63213  97.4130 179.5898 0000543 243.0057 117.1125 15.24217187 32518
TEVEL2-5
1 63214U 25052E   25287.22946793  .00018417  00000-0  75833-3 0  9996
2 63214  97.4131 179.5863 0000534 245.0506 115.0676 15.24167474 32514
TEVEL2-6
1 63215U 25052F   25287.16930460  .00019106  00000-0  78750-3 0  9991
2 63215  97.4130 179.5176 0000587 250.8552 109.2622 15.24124740 32508
TEVEL2-1
1 63217U 25052H   25287.26599481  .00018985  00000-0  78896-3 0  9993
2 63217  97.4105 179.4718 0001013 309.1397  50.9750 15.23849262 32510
TEVEL2-3
1 63218U 25052J   25287.26585255  .00018884  00000-0  78449-3 0  9990
2 63218  97.4107 179.4746 0001060 311.4287  48.6859 15.23861914 32512
TEVEL2-2
1 63219U 25052K   25287.26675852  .00018820  00000-0  78216-3 0  9996
2 63219  97.4106 179.4724 0001055 309.6246  50.4898 15.23847197 32517
TEVEL2-9
1 63237U 25052AD  25287.17429782  .00019416  00000-0  83939-3 0  9995
2 63237  97.4168 179.1652 0005445 305.2104  54.8622 15.22492174 32472
TEVEL2-7
1 63238U 25052AE  25287.18316305  .00018108  00000-0  78568-3 0  9992
2 63238  97.4172 179.1584 0005510 304.6404  55.4313 15.22383719 32479
TEVEL2-8
1 63239U 25052AF  25287.25345602  .00018072  00000-0  78474-3 0  9999
2 63239  97.4172 179.2154 0005546 304.6921  55.3792 15.22355653 32484
HYDRA-W
1 63490U 25052BL  25285.93662568  .00070828  00000-0  22684-2 0  9992
2 63490  97.4105 179.2897 0006352 303.2555  56.8077 15.32094284 32389
HADES-ICM (SO-125)
1 63492U 25052BN  25285.80884399  .00063796  00000-0  21138-2 0  9997
2 63492  97.4113 179.0200 0007028 308.1170  51.9437 15.31028346 32352
